| time (UTC) | temp F | wind direction | speed MPH | gust MPH | rain 1hr in | rain 24hr in | rain mn in | humidity % | barometer mb |
| 20260905182514 | 80 | 163 | 1.0 | 5.0 | 0.00 | 0.00 | 0.00 | 74 | 1017.0 |
| 20260905182007 | 79 | 167 | 0.0 | 5.0 | 0.00 | 0.00 | 0.00 | 75 | 1017.1 |
| 20260905181501 | 78 | 98 | 0.0 | 3.0 | 0.00 | 0.00 | 0.00 | 78 | 1017.1 |
| 20260905180956 | 78 | 84 | 1.0 | 3.0 | 0.00 | 0.00 | 0.00 | 78 | 1017.0 |
| 20260905180450 | 78 | 85 | 1.0 | 4.0 | 0.00 | 0.00 | 0.00 | 78 | 1017.1 |
| 20260905175943 | 78 | 93 | 1.0 | 4.0 | 0.00 | 0.00 | 0.00 | 81 | 1017.1 |
| 20260905175438 | 78 | 119 | 0.0 | 3.0 | 0.00 | 0.00 | 0.00 | 81 | 1017.1 |
| 20260905174932 | 77 | 166 | 1.0 | 4.0 | 0.00 | 0.00 | 0.00 | 82 | 1017.2 |
| 20260905174426 | 77 | 166 | 1.0 | 4.0 | 0.00 | 0.00 | 0.00 | 81 | 1017.2 |
| 20260905173920 | 77 | 166 | 1.0 | 4.0 | 0.00 | 0.00 | 0.00 | 80 | 1017.3 |
| 20260905173414 | 77 | 151 | 1.0 | 3.0 | 0.00 | 0.00 | 0.00 | 81 | 1017.3 |
| 20260905172907 | 76 | 57 | 1.0 | 4.0 | 0.00 | 0.00 | 0.00 | 82 | 1017.2 |
| 20260905172403 | 76 | 96 | 1.0 | 4.0 | 0.00 | 0.00 | 0.00 | 81 | 1017.2 |
| 20260905171855 | 76 | 107 | 1.0 | 4.0 | 0.00 | 0.00 | 0.00 | 82 | 1017.3 |
| 20260905171350 | 76 | 104 | 1.0 | 4.0 | 0.00 | 0.00 | 0.00 | 81 | 1017.3 |
| 20260905170845 | 76 | 93 | 1.0 | 4.0 | 0.00 | 0.00 | 0.00 | 82 | 1017.3 |
| 20260905170338 | 76 | 88 | 0.0 | 4.0 | 0.00 | 0.00 | 0.00 | 84 | 1017.4 |
| 20260905165832 | 75 | 32 | 0.0 | 2.0 | 0.00 | 0.00 | 0.00 | 84 | 1017.4 |
| 20260905165550 | 75 | 32 | 1.0 | 2.0 | 0.00 | 0.00 | 0.00 | 84 | 1017.5 |
| 20260905164820 | 75 | 36 | 1.0 | 3.0 | 0.00 | 0.00 | 0.00 | 85 | 1017.5 |
| 20260905164314 | 75 | 35 | 1.0 | 3.0 | 0.00 | 0.00 | 0.00 | 86 | 1017.5 |
| 20260905163807 | 75 | 68 | 1.0 | 2.0 | 0.00 | 0.00 | 0.00 | 86 | 1017.6 |
| 20260905163301 | 74 | 89 | 0.0 | 2.0 | 0.00 | 0.00 | 0.00 | 85 | 1017.5 |
| 20260905162757 | 74 | 88 | 0.0 | 3.0 | 0.00 | 0.00 | 0.00 | 86 | 1017.5 |
| 20260905162249 | 74 | 89 | 0.0 | 3.0 | 0.00 | 0.00 | 0.00 | 86 | 1017.5 |
| 20260905161743 | 74 | 97 | 0.0 | 0.0 | 0.00 | 0.00 | 0.00 | 86 | 1017.5 |
| 20260905161238 | 74 | 97 | 1.0 | 2.0 | 0.00 | 0.00 | 0.00 | 86 | 1017.5 |
| 20260905160731 | 74 | 97 | 1.0 | 3.0 | 0.00 | 0.00 | 0.00 | 86 | 1017.4 |
| 20260905160446 | 74 | 95 | 1.0 | 3.0 | 0.00 | 0.00 | 0.00 | 86 | 1017.4 |
| 20260905155719 | 74 | 95 | 1.0 | 4.0 | 0.00 | 0.00 | 0.00 | 85 | 1017.4 |
| 20260905155214 | 74 | 95 | 1.0 | 4.0 | 0.00 | 0.00 | 0.00 | 86 | 1017.4 |
| 20260905154707 | 74 | 94 | 1.0 | 4.0 | 0.00 | 0.00 | 0.00 | 86 | 1017.3 |
| 20260905154202 | 74 | 94 | 1.0 | 6.0 | 0.00 | 0.00 | 0.00 | 86 | 1017.3 |
| 20260905153656 | 73 | 348 | 1.0 | 6.0 | 0.00 | 0.00 | 0.00 | 86 | 1017.4 |
| 20260905153149 | 73 | 348 | 2.0 | 6.0 | 0.00 | 0.00 | 0.00 | 86 | 1017.3 |
| 20260905152643 | 73 | 95 | 2.0 | 6.0 | 0.00 | 0.00 | 0.00 | 86 | 1017.2 |
| 20260905152137 | 73 | 41 | 2.0 | 7.0 | 0.00 | 0.00 | 0.00 | 86 | 1017.1 |
| 20260905151632 | 73 | 85 | 3.0 | 7.0 | 0.00 | 0.00 | 0.00 | 86 | 1017.0 |
| 20260905151126 | 73 | 97 | 3.0 | 8.0 | 0.00 | 0.00 | 0.00 | 86 | 1016.8 |
| 20260905150620 | 73 | 95 | 3.0 | 8.0 | 0.00 | 0.00 | 0.00 | 86 | 1016.7 |
| 20260905150114 | 73 | 74 | 2.0 | 6.0 | 0.00 | 0.00 | 0.00 | 86 | 1016.9 |
| 20260905145830 | 73 | 69 | 2.0 | 6.0 | 0.00 | 0.00 | 0.00 | 87 | 1017.0 |
| 20260905145102 | 73 | 14 | 1.0 | 4.0 | 0.00 | 0.00 | 0.00 | 87 | 1016.9 |
| 20260905144556 | 73 | 78 | 1.0 | 3.0 | 0.00 | 0.00 | 0.00 | 87 | 1016.9 |
| 20260905144051 | 73 | 73 | 2.0 | 6.0 | 0.00 | 0.00 | 0.00 | 87 | 1016.9 |
| 20260905143544 | 73 | 65 | 2.0 | 6.0 | 0.00 | 0.00 | 0.00 | 87 | 1016.8 |
| 20260905143037 | 73 | 101 | 2.0 | 7.0 | 0.00 | 0.00 | 0.00 | 87 | 1016.7 |
| 20260905142536 | 73 | 86 | 2.0 | 7.0 | 0.00 | 0.00 | 0.00 | 87 | 1016.7 |
| 20260905142037 | 73 | 87 | 1.0 | 7.0 | 0.00 | 0.00 | 0.00 | 87 | 1016.7 |
| 20260905141533 | 73 | 87 | 1.0 | 7.0 | 0.00 | 0.00 | 0.00 | 87 | 1016.7 |
| 20260905141033 | 73 | 78 | 1.0 | 2.0 | 0.00 | 0.00 | 0.00 | 88 | 1016.7 |
| 20260905140533 | 73 | 77 | 0.0 | 2.0 | 0.00 | 0.00 | 0.00 | 88 | 1016.5 |
| 20260905140031 | 73 | 77 | 0.0 | 2.0 | 0.00 | 0.00 | 0.00 | 88 | 1016.4 |
| 20260905135529 | 73 | 77 | 1.0 | 4.0 | 0.00 | 0.00 | 0.00 | 88 | 1016.4 |
| 20260905135028 | 73 | 89 | 1.0 | 4.0 | 0.00 | 0.00 | 0.00 | 88 | 1016.3 |
| 20260905134525 | 72 | 89 | 2.0 | 4.0 | 0.00 | 0.00 | 0.00 | 87 | 1016.2 |
| 20260905134023 | 72 | 88 | 3.0 | 6.0 | 0.00 | 0.00 | 0.00 | 87 | 1016.0 |
| 20260905133523 | 72 | 95 | 2.0 | 6.0 | 0.00 | 0.00 | 0.00 | 87 | 1016.0 |
| 20260905133025 | 72 | 90 | 2.0 | 6.0 | 0.00 | 0.01 | 0.00 | 88 | 1016.0 |
| 20260905132523 | 72 | 80 | 2.0 | 5.0 | 0.00 | 0.01 | 0.00 | 88 | 1016.0 |
| 20260905132024 | 72 | 96 | 2.0 | 8.0 | 0.00 | 0.01 | 0.00 | 88 | 1015.8 |
| 20260905131747 | 72 | 46 | 2.0 | 8.0 | 0.00 | 0.01 | 0.00 | 88 | 1015.7 |
| 20260905131019 | 72 | 98 | 2.0 | 4.0 | 0.00 | 0.02 | 0.00 | 88 | 1015.6 |
| 20260905130519 | 72 | 93 | 2.0 | 7.0 | 0.00 | 0.02 | 0.00 | 88 | 1015.6 |
| 20260905130019 | 72 | 86 | 2.0 | 7.0 | 0.00 | 0.02 | 0.00 | 88 | 1015.6 |
| 20260905125520 | 72 | 67 | 2.0 | 7.0 | 0.00 | 0.02 | 0.00 | 88 | 1015.6 |
| 20260905125019 | 72 | 86 | 2.0 | 5.0 | 0.00 | 0.03 | 0.00 | 88 | 1015.6 |
| 20260905124520 | 72 | 90 | 2.0 | 4.0 | 0.00 | 0.03 | 0.00 | 88 | 1015.7 |
| 20260905124019 | 72 | 91 | 2.0 | 6.0 | 0.00 | 0.03 | 0.00 | 88 | 1015.7 |
| 20260905124006 | 72 | 96 | 1.0 | 6.0 | 0.00 | 0.04 | 0.00 | 88 | 1015.6 |
| 20260905123237 | 72 | 89 | 0.0 | 3.0 | 0.00 | 0.04 | 0.00 | 88 | 1015.6 |
| 20260905122519 | 72 | 88 | 0.0 | 2.0 | 0.00 | 0.05 | 0.00 | 88 | 1015.6 |
| 20260905122242 | 72 | 88 | 1.0 | 4.0 | 0.00 | 0.05 | 0.00 | 88 | 1015.6 |
| 20260905121520 | 72 | 88 | 2.0 | 4.0 | 0.00 | 0.06 | 0.00 | 88 | 1015.5 |
| 20260905121236 | 72 | 87 | 1.0 | 3.0 | 0.00 | 0.06 | 0.00 | 88 | 1015.5 |
| 20260905120520 | 71 | 92 | 1.0 | 4.0 | 0.00 | 0.07 | 0.00 | 88 | 1015.5 |
| 20260905120020 | 71 | 86 | 1.0 | 4.0 | 0.00 | 0.07 | 0.00 | 88 | 1015.4 |
| 20260905115520 | 71 | 88 | 0.0 | 2.0 | 0.00 | 0.08 | 0.00 | 88 | 1015.4 |
| 20260905115019 | 71 | 88 | 1.0 | 4.0 | 0.00 | 0.09 | 0.00 | 88 | 1015.3 |
| 20260905114513 | 71 | 88 | 1.0 | 4.0 | 0.00 | 0.10 | 0.00 | 88 | 1015.1 |
| 20260905114006 | 72 | 96 | 0.0 | 2.0 | 0.00 | 0.10 | 0.00 | 88 | 1015.1 |
| 20260905113501 | 72 | 96 | 0.0 | 3.0 | 0.00 | 0.11 | 0.00 | 88 | 1015.2 |
| 20260905112954 | 71 | 96 | 0.0 | 3.0 | 0.00 | 0.12 | 0.00 | 88 | 1015.1 |
| 20260905112452 | 71 | 99 | 0.0 | 2.0 | 0.00 | 0.13 | 0.00 | 88 | 1015.0 |
| 20260905111952 | 72 | 326 | 0.0 | 2.0 | 0.00 | 0.14 | 0.00 | 88 | 1015.0 |
| 20260905111452 | 72 | 322 | 0.0 | 2.0 | 0.00 | 0.15 | 0.00 | 88 | 1015.1 |
| 20260905110952 | 72 | 322 | 0.0 | 1.0 | 0.00 | 0.16 | 0.00 | 88 | 1015.1 |
| 20260905110452 | 72 | 322 | 1.0 | 3.0 | 0.00 | 0.18 | 0.00 | 88 | 1015.2 |
| 20260905105951 | 72 | 322 | 1.0 | 3.0 | 0.00 | 0.20 | 0.00 | 88 | 1015.1 |
| 20260905105711 | 71 | 88 | 0.0 | 3.0 | 0.00 | 0.22 | 0.00 | 88 | 1014.7 |
| 20260905104951 | 71 | 89 | 0.0 | 1.0 | 0.00 | 0.24 | 0.00 | 88 | 1014.4 |
| 20260905104451 | 71 | 89 | 0.0 | 1.0 | 0.00 | 0.24 | 0.00 | 88 | 1014.2 |
| 20260905103950 | 71 | 89 | 1.0 | 4.0 | 0.00 | 0.24 | 0.00 | 88 | 1014.2 |
| 20260905103448 | 71 | 89 | 1.0 | 4.0 | 0.00 | 0.24 | 0.00 | 88 | 1014.5 |
| 20260905102947 | 71 | 78 | 0.0 | 2.0 | 0.00 | 0.24 | 0.00 | 88 | 1014.4 |
| 20260905102448 | 71 | 78 | 0.0 | 3.0 | 0.00 | 0.24 | 0.00 | 88 | 1014.5 |
| 20260905101945 | 71 | 78 | 0.0 | 3.0 | 0.00 | 0.24 | 0.00 | 88 | 1014.4 |
| 20260905101443 | 71 | 80 | 0.0 | 6.0 | 0.00 | 0.24 | 0.00 | 88 | 1014.3 |
| 20260905100942 | 71 | 89 | 2.0 | 6.0 | 0.00 | 0.25 | 0.00 | 88 | 1014.1 |
| 20260905100440 | 71 | 88 | 2.0 | 7.0 | 0.00 | 0.26 | 0.00 | 87 | 1014.1 |
| 20260905095937 | 71 | 93 | 1.0 | 7.0 | 0.00 | 0.28 | 0.00 | 87 | 1014.0 |
| 20260905095435 | 71 | 101 | 0.0 | 0.0 | 0.00 | 0.30 | 0.00 | 87 | 1014.0 |
| 20260905094936 | 71 | 132 | 0.0 | 0.0 | 0.00 | 0.32 | 0.00 | 86 | 1014.0 |
| 20260905094654 | 71 | 132 | 0.0 | 0.0 | 0.00 | 0.34 | 0.00 | 86 | 1014.1 |
| 20260905094151 | 71 | 132 | 0.0 | 0.0 | 0.00 | 0.38 | 0.00 | 86 | 1014.2 |
| 20260905093417 | 72 | 115 | 0.0 | 3.0 | 0.00 | 0.42 | 0.00 | 86 | 1014.2 |
| 20260905092910 | 72 | 147 | 1.0 | 6.0 | 0.00 | 0.48 | 0.00 | 85 | 1014.3 |
| 20260905092405 | 72 | 80 | 1.0 | 6.0 | 0.00 | 0.56 | 0.00 | 85 | 1014.3 |
| 20260905091859 | 72 | 100 | 0.0 | 4.0 | 0.00 | 0.63 | 0.00 | 85 | 1014.2 |
| 20260905091353 | 72 | 165 | 0.0 | 2.0 | 0.00 | 0.63 | 0.00 | 85 | 1014.2 |
| 20260905090846 | 73 | 117 | 1.0 | 3.0 | 0.00 | 0.63 | 0.00 | 85 | 1014.4 |
| 20260905090341 | 73 | 118 | 1.0 | 3.0 | 0.00 | 0.63 | 0.00 | 85 | 1014.4 |
| 20260905090054 | 73 | 98 | 1.0 | 3.0 | 0.00 | 0.63 | 0.00 | 85 | 1014.2 |
| 20260905085546 | 73 | 84 | 1.0 | 3.0 | 0.00 | 0.63 | 0.00 | 85 | 1014.3 |
| 20260905085045 | 74 | 198 | 0.0 | 3.0 | 0.00 | 0.63 | 0.00 | 85 | 1014.2 |
| 20260905084317 | 74 | 138 | 0.0 | 3.0 | 0.00 | 0.63 | 0.00 | 85 | 1014.2 |
| 20260905083811 | 74 | 199 | 1.0 | 8.0 | 0.00 | 0.63 | 0.00 | 85 | 1014.1 |
| 20260905083305 | 74 | 118 | 1.0 | 8.0 | 0.00 | 0.63 | 0.00 | 86 | 1014.1 |
| 20260905082758 | 75 | 322 | 1.0 | 3.0 | 0.00 | 0.63 | 0.00 | 86 | 1014.1 |
| 20260905082253 | 75 | 78 | 0.0 | 2.0 | 0.00 | 0.63 | 0.00 | 86 | 1014.0 |
| 20260905081747 | 75 | 26 | 0.0 | 1.0 | 0.00 | 0.63 | 0.00 | 86 | 1014.1 |
| 20260905081457 | 75 | 26 | 0.0 | 0.0 | 0.00 | 0.63 | 0.00 | 86 | 1014.1 |
| 20260905080735 | 75 | 26 | 0.0 | 0.0 | 0.00 | 0.63 | 0.00 | 86 | 1014.1 |
| 20260905080228 | 75 | 26 | 0.0 | 1.0 | 0.00 | 0.63 | 0.00 | 86 | 1014.1 |
| 20260905075723 | 75 | 26 | 0.0 | 2.0 | 0.00 | 0.63 | 0.00 | 86 | 1014.1 |
| 20260905075446 | 75 | 26 | 0.0 | 2.0 | 0.00 | 0.63 | 0.00 | 86 | 1014.1 |
| 20260905074711 | 76 | 26 | 0.0 | 1.0 | 0.00 | 0.63 | 0.00 | 87 | 1014.1 |
| 20260905074205 | 76 | 26 | 0.0 | 1.0 | 0.00 | 0.63 | 0.00 | 87 | 1014.0 |
| 20260905073658 | 76 | 26 | 0.0 | 2.0 | 0.00 | 0.63 | 0.00 | 87 | 1014.0 |
| 20260905073149 | 76 | 26 | 0.0 | 2.0 | 0.00 | 0.63 | 0.00 | 87 | 1014.0 |
| 20260905072642 | 76 | 26 | 0.0 | 2.0 | 0.00 | 0.63 | 0.00 | 87 | 1014.0 |
| 20260905072356 | 76 | 23 | 0.0 | 2.0 | 0.00 | 0.63 | 0.00 | 87 | 1014.1 |
| 20260905071631 | 76 | 16 | 0.0 | 1.0 | 0.00 | 0.63 | 0.00 | 86 | 1014.1 |
| 20260905071124 | 76 | 16 | 0.0 | 1.0 | 0.00 | 0.63 | 0.00 | 86 | 1014.0 |
| 20260905070620 | 76 | 16 | 0.0 | 1.0 | 0.00 | 0.63 | 0.00 | 86 | 1014.0 |
| 20260905070113 | 76 | 16 | 0.0 | 0.0 | 0.00 | 0.63 | 0.00 | 86 | 1014.0 |
| 20260905065606 | 76 | 16 | 0.0 | 0.0 | 0.00 | 0.63 | 0.00 | 86 | 1013.9 |
| 20260905065101 | 76 | 16 | 0.0 | 0.0 | 0.00 | 0.63 | 0.00 | 86 | 1013.9 |
| 20260905064818 | 76 | 16 | 0.0 | 0.0 | 0.00 | 0.63 | 0.00 | 86 | 1013.9 |
| 20260905064048 | 76 | 16 | 0.0 | 0.0 | 0.00 | 0.63 | 0.00 | 86 | 1013.7 |
| 20260905063543 | 76 | 16 | 0.0 | 0.0 | 0.00 | 0.63 | 0.00 | 86 | 1013.8 |
| 20260905063036 | 76 | 16 | 0.0 | 0.0 | 0.00 | 0.63 | 0.00 | 86 | 1013.7 |
| 20260905062532 | 77 | 16 | 0.0 | 0.0 | 0.00 | 0.63 | 0.00 | 86 | 1013.7 |
| 20260905062025 | 77 | 14 | 0.0 | 0.0 | 0.00 | 0.63 | 0.00 | 86 | 1013.7 |
| 20260905061519 | 77 | 13 | 0.0 | 0.0 | 0.00 | 0.63 | 0.00 | 86 | 1013.7 |
| 20260905061012 | 77 | 13 | 0.0 | 2.0 | 0.00 | 0.63 | 0.00 | 86 | 1013.7 |
| 20260905060732 | 77 | 13 | 0.0 | 2.0 | 0.00 | 0.63 | 0.00 | 86 | 1013.8 |
| 20260905060000 | 77 | 11 | 0.0 | 2.0 | 0.00 | 0.63 | 0.00 | 86 | 1013.8 |
| 20260905055455 | 77 | 11 | 0.0 | 2.0 | 0.00 | 0.63 | 0.00 | 86 | 1013.8 |
| 20260905054949 | 77 | 239 | 0.0 | 0.0 | 0.00 | 0.63 | 0.00 | 86 | 1013.8 |
| 20260905054442 | 78 | 238 | 0.0 | 2.0 | 0.00 | 0.63 | 0.00 | 86 | 1013.6 |
| 20260905053936 | 78 | 238 | 0.0 | 2.0 | 0.00 | 0.63 | 0.00 | 86 | 1013.6 |
| 20260905053431 | 78 | 238 | 0.0 | 3.0 | 0.00 | 0.63 | 0.00 | 87 | 1013.5 |
| 20260905052925 | 78 | 238 | 0.0 | 3.0 | 0.00 | 0.63 | 0.00 | 87 | 1013.4 |
| 20260905052418 | 78 | 73 | 0.0 | 3.0 | 0.00 | 0.63 | 0.00 | 87 | 1013.4 |
| 20260905051913 | 78 | 5 | 1.0 | 5.0 | 0.00 | 0.63 | 0.00 | 87 | 1013.4 |
| 20260905051406 | 78 | 18 | 0.0 | 5.0 | 0.00 | 0.63 | 0.00 | 87 | 1013.4 |
| 20260905051119 | 78 | 130 | 0.0 | 0.0 | 0.00 | 0.63 | 0.00 | 87 | 1013.4 |
| 20260905050354 | 78 | 130 | 0.0 | 0.0 | 0.00 | 0.63 | 0.00 | 87 | 1013.3 |
| 20260905045853 | 78 | 229 | 0.0 | 0.0 | 0.00 | 0.63 | 0.63 | 87 | 1013.3 |
| 20260905045353 | 78 | 229 | 0.0 | 0.0 | 0.00 | 0.63 | 0.63 | 87 | 1013.1 |
| 20260905044851 | 78 | 229 | 0.0 | 0.0 | 0.00 | 0.63 | 0.63 | 87 | 1013.1 |
| 20260905044351 | 79 | 159 | 0.0 | 0.0 | 0.00 | 0.63 | 0.63 | 87 | 1013.1 |
| 20260905043851 | 79 | 192 | 0.0 | 0.0 | 0.00 | 0.63 | 0.63 | 87 | 1013.1 |
| 20260905043349 | 79 | 180 | 0.0 | 0.0 | 0.00 | 0.63 | 0.63 | 87 | 1013.1 |
| 20260905042847 | 79 | 165 | 0.0 | 0.0 | 0.00 | 0.63 | 0.63 | 87 | 1013.0 |
| 20260905042346 | 79 | 165 | 0.0 | 0.0 | 0.00 | 0.63 | 0.63 | 87 | 1013.1 |
| 20260905041845 | 79 | 165 | 0.0 | 0.0 | 0.00 | 0.63 | 0.63 | 86 | 1013.1 |
| 20260905041610 | 79 | 165 | 0.0 | 3.0 | 0.00 | 0.63 | 0.63 | 86 | 1013.0 |
| 20260905040845 | 79 | 179 | 0.0 | 3.0 | 0.00 | 0.63 | 0.63 | 87 | 1012.8 |
| 20260905040346 | 79 | 310 | 0.0 | 2.0 | 0.00 | 0.63 | 0.63 | 87 | 1012.9 |
| 20260905040104 | 79 | 348 | 0.0 | 0.0 | 0.00 | 0.63 | 0.63 | 87 | 1012.8 |
| 20260905035345 | 79 | 215 | 0.0 | 1.0 | 0.00 | 0.63 | 0.63 | 87 | 1012.7 |
| 20260905034844 | 79 | 215 | 0.0 | 3.0 | 0.00 | 0.63 | 0.63 | 87 | 1012.8 |
| 20260905034341 | 79 | 338 | 0.0 | 3.0 | 0.00 | 0.63 | 0.63 | 87 | 1012.7 |
| 20260905033839 | 80 | 88 | 0.0 | 0.0 | 0.00 | 0.63 | 0.63 | 87 | 1012.7 |
| 20260905033608 | 80 | 88 | 0.0 | 0.0 | 0.00 | 0.63 | 0.63 | 86 | 1012.7 |
| 20260905032835 | 80 | 88 | 0.0 | 0.0 | 0.00 | 0.63 | 0.63 | 86 | 1012.8 |
| 20260905032333 | 80 | 88 | 0.0 | 0.0 | 0.00 | 0.63 | 0.63 | 86 | 1012.9 |
| 20260905031826 | 80 | 88 | 0.0 | 0.0 | 0.00 | 0.63 | 0.63 | 86 | 1012.9 |
| 20260905031321 | 80 | 88 | 0.0 | 0.0 | 0.00 | 0.63 | 0.63 | 86 | 1012.9 |
| 20260905030814 | 80 | 88 | 0.0 | 0.0 | 0.00 | 0.63 | 0.63 | 86 | 1012.9 |
| 20260905030535 | 80 | 88 | 0.0 | 0.0 | 0.00 | 0.63 | 0.63 | 86 | 1012.9 |
| 20260905025802 | 80 | 88 | 0.0 | 0.0 | 0.00 | 0.63 | 0.63 | 86 | 1012.9 |
| 20260905025258 | 80 | 88 | 0.0 | 0.0 | 0.00 | 0.63 | 0.63 | 86 | 1012.9 |
| 20260905024751 | 80 | 88 | 0.0 | 0.0 | 0.00 | 0.63 | 0.63 | 86 | 1012.9 |
| 20260905024244 | 80 | 88 | 0.0 | 0.0 | 0.00 | 0.63 | 0.63 | 85 | 1012.9 |
| 20260905023739 | 80 | 88 | 0.0 | 0.0 | 0.00 | 0.63 | 0.63 | 85 | 1012.9 |
| 20260905023232 | 80 | 88 | 0.0 | 0.0 | 0.00 | 0.63 | 0.63 | 85 | 1012.9 |
| 20260905022726 | 80 | 88 | 0.0 | 0.0 | 0.00 | 0.63 | 0.63 | 85 | 1012.8 |
| 20260905022221 | 80 | 88 | 0.0 | 0.0 | 0.00 | 0.63 | 0.63 | 85 | 1012.9 |
| 20260905021714 | 80 | 88 | 0.0 | 1.0 | 0.00 | 0.63 | 0.63 | 85 | 1013.0 |
| 20260905021210 | 81 | 88 | 0.0 | 2.0 | 0.00 | 0.63 | 0.63 | 84 | 1012.9 |
| 20260905020702 | 81 | 88 | 1.0 | 4.0 | 0.00 | 0.63 | 0.63 | 84 | 1012.8 |
| 20260905020424 | 81 | 88 | 1.0 | 4.0 | 0.00 | 0.63 | 0.63 | 84 | 1012.7 |
| 20260905015650 | 81 | 80 | 0.0 | 1.0 | 0.00 | 0.63 | 0.63 | 83 | 1012.8 |
| 20260905015408 | 81 | 80 | 0.0 | 0.0 | 0.00 | 0.63 | 0.63 | 83 | 1012.7 |
| 20260905015124 | 81 | 80 | 0.0 | 1.0 | 0.00 | 0.63 | 0.63 | 83 | 1012.7 |
| 20260905014351 | 82 | 80 | 0.0 | 2.0 | 0.00 | 0.63 | 0.63 | 83 | 1012.7 |
| 20260905013850 | 82 | 80 | 0.0 | 2.0 | 0.00 | 0.63 | 0.63 | 82 | 1012.5 |
| 20260905013120 | 82 | 80 | 0.0 | 1.0 | 0.00 | 0.63 | 0.63 | 82 | 1012.3 |
| 20260905012614 | 82 | 80 | 1.0 | 4.0 | 0.00 | 0.63 | 0.63 | 82 | 1012.2 |
| 20260905012109 | 82 | 80 | 2.0 | 4.0 | 0.00 | 0.63 | 0.63 | 82 | 1012.2 |
| 20260905011821 | 83 | 80 | 2.0 | 4.0 | 0.00 | 0.63 | 0.63 | 82 | 1012.2 |
| 20260905011056 | 83 | 80 | 1.0 | 4.0 | 0.00 | 0.63 | 0.63 | 81 | 1012.2 |
| 20260905010550 | 84 | 242 | 0.0 | 0.0 | 0.00 | 0.63 | 0.63 | 80 | 1012.1 |
| 20260905010305 | 84 | 244 | 0.0 | 0.0 | 0.00 | 0.63 | 0.63 | 80 | 1012.0 |
| 20260905005800 | 84 | 244 | 0.0 | 0.0 | 0.00 | 0.63 | 0.63 | 79 | 1011.9 |
| 20260905005032 | 85 | 244 | 0.0 | 0.0 | 0.00 | 0.63 | 0.63 | 79 | 1011.8 |
| 20260905004526 | 85 | 244 | 0.0 | 0.0 | 0.00 | 0.63 | 0.63 | 79 | 1011.8 |
| 20260905004244 | 85 | 244 | 0.0 | 0.0 | 0.00 | 0.63 | 0.63 | 78 | 1011.6 |
| 20260905003521 | 86 | 244 | 0.0 | 0.0 | 0.00 | 0.63 | 0.63 | 78 | 1011.6 |
| 20260905003019 | 86 | 244 | 0.0 | 0.0 | 0.00 | 0.63 | 0.63 | 78 | 1011.5 |
| 20260905002519 | 86 | 244 | 0.0 | 0.0 | 0.00 | 0.63 | 0.63 | 77 | 1011.4 |
| 20260905002018 | 87 | 244 | 0.0 | 0.0 | 0.00 | 0.63 | 0.63 | 77 | 1011.5 |
| 20260905001518 | 87 | 244 | 0.0 | 0.0 | 0.00 | 0.63 | 0.63 | 76 | 1011.5 |
| 20260905001018 | 87 | 241 | 0.0 | 0.0 | 0.00 | 0.63 | 0.63 | 75 | 1011.3 |
| 20260905000518 | 87 | 271 | 0.0 | 0.0 | 0.00 | 0.63 | 0.63 | 75 | 1011.3 |
| 20260905000019 | 87 | 271 | 0.0 | 0.0 | 0.00 | 0.63 | 0.63 | 74 | 1011.3 |
| 20260904235519 | 87 | 248 | 1.0 | 4.0 | 0.00 | 0.63 | 0.63 | 74 | 1011.1 |
| 20260904235014 | 88 | 249 | 2.0 | 6.0 | 0.00 | 0.63 | 0.63 | 74 | 1011.2 |
| 20260904234515 | 88 | 219 | 3.0 | 6.0 | 0.00 | 0.63 | 0.63 | 73 | 1011.3 |
| 20260904234015 | 88 | 217 | 3.0 | 6.0 | 0.00 | 0.63 | 0.63 | 73 | 1011.3 |
| 20260904233736 | 88 | 220 | 3.0 | 6.0 | 0.00 | 0.63 | 0.63 | 72 | 1011.3 |
| 20260904233015 | 88 | 223 | 4.0 | 6.0 | 0.00 | 0.63 | 0.63 | 72 | 1011.4 |
| 20260904232515 | 88 | 224 | 4.0 | 7.0 | 0.00 | 0.63 | 0.63 | 72 | 1011.6 |
| 20260904232014 | 89 | 222 | 3.0 | 7.0 | 0.00 | 0.63 | 0.63 | 71 | 1011.6 |
| 20260904231515 | 89 | 215 | 3.0 | 6.0 | 0.00 | 0.63 | 0.63 | 72 | 1011.6 |
| 20260904231015 | 89 | 211 | 4.0 | 8.0 | 0.00 | 0.63 | 0.63 | 71 | 1011.5 |
| 20260904230515 | 89 | 213 | 4.0 | 8.0 | 0.00 | 0.63 | 0.63 | 71 | 1011.6 |
| 20260904230014 | 89 | 227 | 3.0 | 8.0 | 0.00 | 0.63 | 0.63 | 71 | 1011.7 |
| 20260904225732 | 89 | 222 | 3.0 | 4.0 | 0.00 | 0.63 | 0.63 | 72 | 1011.5 |
| 20260904225240 | 89 | 221 | 3.0 | 6.0 | 0.00 | 0.63 | 0.63 | 72 | 1011.4 |
| 20260904224515 | 89 | 283 | 3.0 | 7.0 | 0.00 | 0.63 | 0.63 | 72 | 1011.3 |
| 20260904224015 | 89 | 239 | 3.0 | 7.0 | 0.00 | 0.63 | 0.63 | 71 | 1011.4 |
| 20260904223515 | 90 | 230 | 2.0 | 4.0 | 0.00 | 0.63 | 0.63 | 72 | 1011.3 |
| 20260904223013 | 90 | 220 | 2.0 | 5.0 | 0.00 | 0.63 | 0.63 | 72 | 1011.3 |
| 20260904222511 | 90 | 210 | 2.0 | 6.0 | 0.00 | 0.63 | 0.63 | 72 | 1011.3 |
| 20260904222010 | 90 | 229 | 2.0 | 7.0 | 0.00 | 0.63 | 0.63 | 71 | 1011.2 |
| 20260904221510 | 90 | 217 | 3.0 | 7.0 | 0.00 | 0.63 | 0.63 | 71 | 1011.2 |
| 20260904221226 | 90 | 293 | 4.0 | 8.0 | 0.00 | 0.63 | 0.63 | 71 | 1011.1 |
| 20260904220506 | 90 | 221 | 4.0 | 8.0 | 0.00 | 0.63 | 0.63 | 71 | 1010.9 |
| 20260904220005 | 90 | 228 | 5.0 | 9.0 | 0.00 | 0.63 | 0.63 | 71 | 1011.0 |
| 20260904215500 | 90 | 211 | 5.0 | 10.0 | 0.00 | 0.63 | 0.63 | 72 | 1011.0 |
| 20260904215215 | 90 | 221 | 5.0 | 10.0 | 0.00 | 0.63 | 0.63 | 71 | 1011.1 |
| 20260904214447 | 90 | 160 | 4.0 | 8.0 | 0.00 | 0.63 | 0.63 | 71 | 1011.1 |
| 20260904213942 | 90 | 214 | 4.0 | 8.0 | 0.00 | 0.63 | 0.63 | 71 | 1011.3 |
| 20260904213435 | 90 | 209 | 4.0 | 10.0 | 0.00 | 0.63 | 0.63 | 71 | 1011.3 |
| 20260904212929 | 90 | 193 | 5.0 | 10.0 | 0.00 | 0.63 | 0.63 | 70 | 1011.2 |
| 20260904212645 | 90 | 200 | 4.0 | 7.0 | 0.00 | 0.63 | 0.63 | 69 | 1011.2 |
| 20260904211918 | 90 | 215 | 4.0 | 7.0 | 0.00 | 0.63 | 0.63 | 69 | 1011.3 |
| 20260904211411 | 90 | 191 | 3.0 | 7.0 | 0.00 | 0.63 | 0.63 | 70 | 1011.2 |
| 20260904210906 | 90 | 207 | 3.0 | 5.0 | 0.00 | 0.63 | 0.63 | 70 | 1011.2 |
| 20260904210400 | 90 | 222 | 4.0 | 9.0 | 0.00 | 0.63 | 0.63 | 70 | 1011.2 |
| 20260904205853 | 90 | 224 | 6.0 | 12.0 | 0.00 | 0.63 | 0.63 | 67 | 1011.1 |
| 20260904205348 | 90 | 179 | 7.0 | 15.0 | 0.00 | 0.63 | 0.63 | 68 | 1011.2 |
| 20260904204841 | 90 | 183 | 7.0 | 15.0 | 0.00 | 0.63 | 0.63 | 67 | 1011.2 |
| 20260904204337 | 90 | 229 | 6.0 | 11.0 | 0.00 | 0.63 | 0.63 | 67 | 1011.3 |
| 20260904203829 | 90 | 181 | 6.0 | 10.0 | 0.00 | 0.63 | 0.63 | 66 | 1011.2 |
| 20260904203324 | 90 | 188 | 6.0 | 13.0 | 0.00 | 0.63 | 0.63 | 67 | 1011.3 |
| 20260904203037 | 91 | 184 | 5.0 | 10.0 | 0.00 | 0.63 | 0.63 | 66 | 1011.2 |
| 20260904202311 | 92 | 216 | 4.0 | 10.0 | 0.00 | 0.63 | 0.63 | 62 | 1011.2 |
| 20260904201806 | 93 | 211 | 3.0 | 10.0 | 0.00 | 0.63 | 0.63 | 63 | 1011.1 |
| 20260904201300 | 93 | 276 | 3.0 | 6.0 | 0.00 | 0.63 | 0.63 | 63 | 1011.1 |
| 20260904200754 | 92 | 198 | 3.0 | 8.0 | 0.00 | 0.63 | 0.63 | 64 | 1011.0 |
| 20260904200248 | 92 | 204 | 4.0 | 8.0 | 0.00 | 0.63 | 0.63 | 64 | 1011.0 |
| 20260904195741 | 92 | 210 | 4.0 | 8.0 | 0.00 | 0.63 | 0.63 | 64 | 1011.0 |
| 20260904195236 | 92 | 219 | 3.0 | 8.0 | 0.00 | 0.63 | 0.63 | 64 | 1011.1 |
| 20260904194730 | 92 | 232 | 4.0 | 10.0 | 0.00 | 0.63 | 0.63 | 65 | 1011.1 |
| 20260904194223 | 92 | 194 | 3.0 | 10.0 | 0.00 | 0.63 | 0.63 | 68 | 1011.1 |
| 20260904193718 | 91 | 221 | 2.0 | 6.0 | 0.00 | 0.63 | 0.63 | 67 | 1011.1 |
| 20260904193211 | 91 | 227 | 3.0 | 9.0 | 0.00 | 0.63 | 0.63 | 69 | 1011.1 |
| 20260904192707 | 91 | 190 | 4.0 | 9.0 | 0.00 | 0.63 | 0.63 | 68 | 1011.1 |
| 20260904192159 | 90 | 159 | 2.0 | 9.0 | 0.00 | 0.63 | 0.63 | 68 | 1011.1 |
| 20260904191655 | 90 | 188 | 2.0 | 7.0 | 0.00 | 0.63 | 0.63 | 70 | 1011.2 |
| 20260904191148 | 89 | 178 | 4.0 | 10.0 | 0.00 | 0.63 | 0.63 | 70 | 1011.2 |
| 20260904190641 | 89 | 201 | 4.0 | 10.0 | 0.00 | 0.63 | 0.63 | 72 | 1011.2 |
| 20260904190619 | 88 | 189 | 3.0 | 10.0 | 0.00 | 0.63 | 0.63 | 71 | 1011.2 |
| 20260904185630 | 87 | 124 | 3.0 | 8.0 | 0.00 | 0.63 | 0.63 | 72 | 1011.1 |
| 20260904185124 | 87 | 126 | 3.0 | 8.0 | 0.00 | 0.63 | 0.63 | 71 | 1011.3 |
| 20260904184618 | 87 | 161 | 2.0 | 7.0 | 0.00 | 0.63 | 0.63 | 70 | 1011.4 |
| 20260904184112 | 87 | 205 | 3.0 | 7.0 | 0.00 | 0.63 | 0.63 | 71 | 1011.4 |
| 20260904183605 | 86 | 153 | 3.0 | 9.0 | 0.00 | 0.63 | 0.63 | 73 | 1011.4 |
| 20260904183059 | 86 | 170 | 3.0 | 9.0 | 0.00 | 0.63 | 0.63 | 72 | 1011.4 |